Flag for Pakistan Weather past 2 weeks in Sukkur, Pakistan

Now
75 °F

Haze.


Feels Like: 75 °F
Forecast: 77 / 101 °F
Wind: No wind

Location: Sukkur

Current Time: Sep 20, 2014 at 7:51:46 AM

Latest Report: Sep 20, 2014 at 7:00 AM


Visibility: 2 mi

Pressure: 29.59 "Hg

Humidity: 89%

Dew point: 72 °F

Location of SukkurLocation

Historic Weather in Sukkur — Graph

°F

Sukkur temperature yesterday

Maximum temperature yesterday: 106 °F (at 4:00 PM)
Minimum temperature yesterday: 77 °F (at 6:00 AM)
Average temperature yesterday: 90 °F

Past Weeks' High & Low Weather Summary

 TemperatureHumidityPressure
High106 °F (Sep 8, 4:00 PM)89% (Sep 8, 5:30 AM)29.68 "Hg (Sep 8, 5:30 AM)
Low77 °F (Sep 18, 7:00 AM)32% (Sep 19, 4:00 PM)29.21 "Hg (Sep 5, 7:00 PM)
Average92 °F64%29.55 "Hg
* Reported Sep 5 5:00 AM — Sep 20 5:00 AM, Sukkur, Weather by CustomWeather, © 2014

Note: Actual official high and low records may vary slightly from our data, if they occured in-between our weather recording intervals... More about our weather records

Advertising

Sukkur weather history for previous 24 hours

 ConditionsComfort  
Time TempWeatherWind HumidityBarometerVisibility
5:00 AM
Sep 20
77 °FHaze.9 mph83%29.53 "Hg2 mi
3:00 AM79 °FHaze.9 mph84%29.56 "Hg2 mi
2:00 AM79 °FHaze.9 mph84%29.56 "Hg2 mi
1:00 AM81 °FHaze.9 mph79%29.56 "Hg2 mi
12:00 AM81 °FHaze.9 mph79%29.59 "Hg2 mi
11:00 PM
Sep 19
82 °FHaze.9 mph74%29.59 "Hg2 mi
10:00 PM84 °FHaze.9 mph74%29.59 "Hg2 mi
9:00 PM86 °FHaze.9 mph70%29.56 "Hg2 mi
8:00 PM90 °FHaze.9 mph67%29.56 "Hg2 mi
7:00 PM97 °FHaze.No wind53%29.56 "Hg3 mi
6:00 PM100 °FHaze.7 mph40%29.56 "Hg4 mi
5:00 PM106 °FHaze.9 mph32%29.56 "Hg4 mi
4:00 PM106 °FHaze.9 mph32%29.56 "Hg4 mi
2:00 PM100 °FHaze.8 mph45%29.62 "Hg4 mi
1:00 PM99 °FHaze.7 mph47%29.65 "Hg3 mi
12:00 PM97 °FHaze.7 mph50%29.65 "Hg3 mi
11:00 AM95 °FHaze.5 mph50%29.68 "Hg3 mi
10:00 AM84 °FHaze.3 mph70%29.68 "Hg3 mi
9:00 AM84 °FHaze.3 mph70%29.68 "Hg3 mi
8:00 AM77 °FHaze.3 mph89%29.65 "Hg2 mi
7:00 AM77 °FHaze.3 mph79%29.65 "Hg2 mi
Weather by CustomWeather, © 2014

See weather overviewHow to use our weather pages